Des Moines, IA

4:53 PM CDT on April 27, 2017 (GMT -0500)
Des Moines International

Weather History for KDSM - May, 2013

Change the Weather History Date:

Monday, May 13, 2013

  Actual Average Record
Temperature  
Mean Temperature 60 °F 61 °F  
Max Temperature 76 °F 72 °F 92 °F (1956)
Min Temperature 43 °F 51 °F 32 °F (1997)
Degree Days  
Heating Degree Days 5 5  
Month to date heating degree days 151 86  
Since 1 July heating degree days 5978 6125  
Cooling Degree Days 0 2  
Month to date cooling degree days 0 14  
Year to date cooling degree days 12 28  
Growing Degree Days 9 (Base 50)    
Moisture  
Dew Point 39 °F    
Average Humidity 46    
Maximum Humidity 60    
Minimum Humidity 31    
Precipitation  
Precipitation 0.00 in 0.16 in 2.51 in (1970)
Month to date precipitation 2.98 2.02  
Year to date precipitation 14.03 10.46  
Snow  
Snow 0.00 in 0.00 in 0.10 in (1918)
Month to date snowfall 6.9 0.0  
Since 1 July snowfall 55.2 35.3  
Snow Depth 0.00 in    
Sea Level Pressure  
Sea Level Pressure 30.03 in    
Wind  
Wind Speed 11 mph (South)    
Max Wind Speed 23 mph    
Max Gust Speed 28 mph    
Visibility 10 miles    
Events      
T = Trace of Precipitation, MM = Missing Value Source: NWS Daily Summary

Daily Weather History Graph

Daily Weather History Graph

Search for Another Location

Airport or City:

Trip Planner

Search our weather history database for the weather conditions in past years. The results will help you decide how hot, cold, wet, or windy it might be!

Date:

Astronomy

May. 13, 2013 Rise Set
Actual Time 5:57 AM CDT 8:25 PM CDT
Civil Twilight 5:25 AM CDT 8:56 PM CDT
Nautical Twilight 4:46 AM CDT 9:36 PM CDT
Astronomical Twilight 4:03 AM CDT 10:20 PM CDT
Moon 8:43 AM CDT (5/13) 11:35 PM CDT (5/13)
Length of Visible Light 15h 31m
Length of Day
14h 28m
Waxing Crescent, 12% of the Moon is Illuminated
May 13
Waxing Crescent
May 17
First Quarter
May 24
Full
May 31
Last Quarter
Jun 8
New

Hourly Weather History & Observations

Time (CDT) Temp. Windchill Dew Point Humidity Pressure Visibility Wind Dir Wind Speed Gust Speed Precip Events Conditions
12:54 AM 51.1 °F - 25.0 °F 36% 30.15 in 10.0 mi Calm Calm - N/A   Clear
1:54 AM 46.0 °F 43.9 °F 28.9 °F 51% 30.15 in 10.0 mi SSW 4.6 mph - N/A   Clear
2:54 AM 46.0 °F 43.9 °F 28.9 °F 51% 30.14 in 10.0 mi South 4.6 mph - N/A   Partly Cloudy
3:54 AM 46.0 °F - 28.0 °F 50% 30.14 in 10.0 mi Calm Calm - N/A   Clear
4:54 AM 45.0 °F 43.5 °F 28.0 °F 52% 30.14 in 10.0 mi SSW 3.5 mph - N/A   Scattered Clouds
5:54 AM 44.1 °F 42.5 °F 28.9 °F 55% 30.13 in 10.0 mi South 3.5 mph - N/A   Partly Cloudy
6:54 AM 46.9 °F - 34.0 °F 61% 30.14 in 10.0 mi South 6.9 mph - N/A   Scattered Clouds
7:54 AM 51.1 °F - 35.1 °F 54% 30.15 in 10.0 mi South 5.8 mph - N/A   Partly Cloudy
8:54 AM 57.9 °F - 36.0 °F 44% 30.14 in 10.0 mi South 11.5 mph - N/A   Partly Cloudy
9:54 AM 63.0 °F - 39.9 °F 43% 30.12 in 10.0 mi South 10.4 mph - N/A   Partly Cloudy
10:54 AM 66.0 °F - 43.0 °F 43% 30.11 in 10.0 mi SSW 12.7 mph - N/A   Partly Cloudy
11:54 AM 69.1 °F - 44.1 °F 40% 30.09 in 10.0 mi SSE 15.0 mph 20.7 mph N/A   Scattered Clouds
12:54 PM 71.1 °F - 46.0 °F 41% 30.05 in 10.0 mi South 15.0 mph - N/A   Mostly Cloudy
1:54 PM 73.4 °F - 46.4 °F 38% 30.02 in 10.0 mi South 17.3 mph 24.2 mph N/A   Mostly Cloudy
3:54 PM 75.9 °F - 42.1 °F 30% 29.96 in 10.0 mi SSW 17.3 mph - N/A   Mostly Cloudy
4:54 PM 75.9 °F - 45.0 °F 33% 29.92 in 10.0 mi South 16.1 mph 26.5 mph N/A   Overcast
5:54 PM 75.0 °F - 44.1 °F 33% 29.91 in 10.0 mi South 19.6 mph - N/A   Overcast
6:54 PM 73.4 °F - 46.4 °F 38% 29.90 in 10.0 mi SSW 17.3 mph 21.9 mph N/A   Overcast
7:54 PM 70.0 °F - 46.9 °F 44% 29.89 in 10.0 mi South 9.2 mph - N/A   Mostly Cloudy
8:54 PM 66.9 °F - 46.9 °F 49% 29.88 in 10.0 mi South 11.5 mph - N/A   Mostly Cloudy
9:54 PM 66.0 °F - 48.0 °F 52% 29.87 in 10.0 mi SSE 10.4 mph - N/A   Mostly Cloudy
10:54 PM 64.0 °F - 48.9 °F 58% 29.86 in 10.0 mi South 10.4 mph - N/A   Partly Cloudy
11:54 PM 64.0 °F - 50.0 °F 60% 29.84 in 10.0 mi South 9.2 mph - N/A   Clear